Regional Weather Roundup
Issued by NWS

Home | Current Version | Previous Version | Graphics & Text | Print | Product List | Glossary On
Versions: 1 2 3 4 5 6 7 8 9 10 11 12 13 14 15 16 17 18 19 20 21 22 23 24 25 26 27 28 29 30 31 32 33 34 35 36 37 38 39 40 41 42 43 44 45 46 47 48 49 50
082
ASUS43 KLMK 232110
RWRKY
KENTUCKY REGIONAL WEATHER ROUNDUP
NATIONAL WEATHER SERVICE LOUISVILLE KY
500 PM EDT SAT SEP 23 2017

NOTE "FAIR" INDICATES FEW OR NO CLOUDS BELOW 12,000 FEET
WITH NO SIGNIFICANT WEATHER AND/OR OBSTRUCTIONS TO VISIBILITY.

KYZ001>023-026-027-061>063-070>075-232200-
WESTERN AND SOUTH CENTRAL KENTUCKY

CITY           SKY/WX    TMP DP  RH WIND       PRES   REMARKS
PADUCAH        SUNNY     92  64  39 VRB3      29.98F HX  93
HENDERSON      SUNNY     89  63  41 NE8       30.02F HX  90
OWENSBORO      SUNNY     89  63  41 E6        30.02F HX  90
HOPKINSVILLE   MOSUNNY   87  67  51 NE8       30.00F HX  90
BOWLING GREEN  SUNNY     88  66  48 E5        30.02F HX  90
GLASGOW        SUNNY     88  65  45 E6        30.04S
$$

KYZ024-025-028>034-038-045-046-053-232200-
NORTH CENTRAL KENTUCKY

CITY           SKY/WX    TMP DP  RH WIND       PRES   REMARKS
LOUISVILLE/SDF MOSUNNY   89  63  41 E5        30.04F HX  90
LOUISVILLE/LOU SUNNY     90  66  45 E3        30.05S HX  92
FORT KNOX      SUNNY     86  64  47 E6        30.04S
$$

KYZ035>037-039>044-047>052-055>060-089>105-232200-
NORTHEAST KENTUCKY

CITY           SKY/WX    TMP DP  RH WIND       PRES   REMARKS
LEXINGTON      SUNNY     88  63  43 E8        30.07F
COVINGTON      MOSUNNY   90  65  43 N8        30.07F HX  92
FRANKFORT      SUNNY     88  59  37 E6        30.05F
$$

KYZ054-064>069-076>088-106>120-232200-
SOUTHEAST KENTUCKY

CITY           SKY/WX    TMP DP  RH WIND       PRES   REMARKS
JACKSON        SUNNY     83  62  49 CALM      30.09S
LONDON         SUNNY     87  56  34 E7        30.06F
SOMERSET       MOSUNNY   86  61  42 E3        30.06F
MIDDLESBORO    MOSUNNY   86  63  45 N6        30.05F
MONTICELLO     NOT AVBL
$$





USA.gov is the U.S. government's official web portal to all federal, state and local government web resources and services.